| time (UTC) | temp C | wind direction | speed KPH | gust KPH | rain 1hr cm | rain 24hr cm | rain mn cm | humidity % | barometer mb |
| 20260505032122 | 13 | 275 | 0.0 | 3.2 | 0.00 | 0.00 | 0.00 | 82 | 1009.1 |
| 20260505031556 | 13 | 275 | 0.0 | 3.2 | 0.00 | 0.00 | 0.00 | 81 | 1009.1 |
| 20260505031111 | 13 | 275 | 0.0 | 0.0 | 0.00 | 0.00 | 0.00 | 81 | 1008.8 |
| 20260505030646 | 13 | 276 | 0.0 | 0.0 | 0.00 | 0.00 | 0.00 | 81 | 1008.8 |
| 20260505030104 | 13 | 275 | 0.0 | 0.0 | 0.00 | 0.00 | 0.00 | 81 | 1008.8 |
| 20260505025610 | 13 | 275 | 0.0 | 0.0 | 0.00 | 0.00 | 0.00 | 80 | 1008.8 |
| 20260505025118 | 13 | 298 | 0.0 | 0.0 | 0.00 | 0.00 | 0.00 | 80 | 1008.8 |
| 20260505024553 | 13 | 302 | 0.0 | 0.0 | 0.00 | 0.00 | 0.00 | 80 | 1008.8 |
| 20260505024049 | 13 | 288 | 0.0 | 0.0 | 0.00 | 0.00 | 0.00 | 80 | 1008.9 |
| 20260505023543 | 13 | 288 | 0.0 | 0.0 | 0.00 | 0.00 | 0.00 | 79 | 1008.9 |
| 20260505023059 | 14 | 309 | 0.0 | 6.4 | 0.00 | 0.00 | 0.00 | 79 | 1008.9 |
| 20260505022554 | 14 | 311 | 0.0 | 6.4 | 0.00 | 0.00 | 0.00 | 79 | 1008.9 |
| 20260505022047 | 14 | 201 | 0.0 | 6.4 | 0.00 | 0.00 | 0.00 | 78 | 1008.9 |
| 20260505021541 | 14 | 237 | 1.6 | 8.0 | 0.00 | 0.00 | 0.00 | 78 | 1008.9 |
| 20260505021100 | 14 | 191 | 0.0 | 8.0 | 0.00 | 0.00 | 0.00 | 77 | 1008.9 |
| 20260505020557 | 14 | 233 | 0.0 | 8.0 | 0.00 | 0.00 | 0.00 | 77 | 1008.9 |
| 20260505020125 | 15 | 237 | 1.6 | 8.0 | 0.00 | 0.00 | 0.00 | 76 | 1008.9 |
| 20260505015614 | 15 | 207 | 0.0 | 6.4 | 0.00 | 0.00 | 0.00 | 76 | 1008.9 |
| 20260505015045 | 15 | 215 | 3.2 | 6.4 | 0.00 | 0.00 | 0.00 | 74 | 1008.9 |
| 20260505014650 | 15 | 248 | 0.0 | 6.4 | 0.00 | 0.00 | 0.00 | 74 | 1008.9 |
| 20260505014048 | 15 | 178 | 1.6 | 9.7 | 0.00 | 0.00 | 0.00 | 73 | 1008.8 |
| 20260505013603 | 15 | 216 | 0.0 | 4.8 | 0.00 | 0.00 | 0.00 | 71 | 1008.8 |
| 20260505013057 | 16 | 253 | 0.0 | 4.8 | 0.00 | 0.00 | 0.00 | 69 | 1008.8 |
| 20260505012612 | 16 | 254 | 0.0 | 4.8 | 0.00 | 0.00 | 0.00 | 68 | 1008.8 |
| 20260505012050 | 16 | 232 | 1.6 | 4.8 | 0.00 | 0.00 | 0.00 | 68 | 1008.8 |
| 20260505011545 | 16 | 251 | 0.0 | 11.3 | 0.00 | 0.00 | 0.00 | 68 | 1008.8 |
| 20260505011101 | 16 | 269 | 3.2 | 11.3 | 0.00 | 0.00 | 0.00 | 66 | 1008.8 |
| 20260505010556 | 16 | 284 | 3.2 | 11.3 | 0.00 | 0.00 | 0.00 | 66 | 1008.8 |
| 20260505010052 | 16 | 226 | 4.8 | 11.3 | 0.00 | 0.00 | 0.00 | 64 | 1008.8 |
| 20260505005606 | 16 | 283 | 0.0 | 4.8 | 0.00 | 0.00 | 0.00 | 64 | 1008.9 |
| 20260505005044 | 16 | 223 | 0.0 | 6.4 | 0.00 | 0.00 | 0.00 | 65 | 1008.9 |
| 20260505004638 | 16 | 174 | 0.0 | 6.4 | 0.00 | 0.00 | 0.00 | 66 | 1008.9 |
| 20260505004105 | 16 | 266 | 1.6 | 6.4 | 0.00 | 0.00 | 0.00 | 64 | 1009.1 |
| 20260505003655 | 16 | 224 | 3.2 | 6.4 | 0.00 | 0.00 | 0.00 | 63 | 1009.1 |
| 20260505003053 | 16 | 254 | 0.0 | 9.7 | 0.00 | 0.00 | 0.00 | 65 | 1009.1 |
| 20260505002548 | 17 | 288 | 3.2 | 9.7 | 0.00 | 0.00 | 0.00 | 65 | 1009.2 |
| 20260505002042 | 16 | 265 | 3.2 | 9.7 | 0.00 | 0.00 | 0.00 | 67 | 1009.2 |
| 20260505001558 | 16 | 269 | 1.6 | 9.7 | 0.00 | 0.00 | 0.00 | 66 | 1009.2 |
| 20260505001053 | 16 | 264 | 0.0 | 9.7 | 0.00 | 0.00 | 0.00 | 68 | 1009.1 |
| 20260505000548 | 16 | 270 | 3.2 | 9.7 | 0.00 | 0.00 | 0.00 | 67 | 1009.1 |
| 20260505000052 | 16 | 242 | 0.0 | 11.3 | 0.00 | 0.00 | 0.00 | 67 | 1009.1 |
| 20260504235547 | 16 | 240 | 0.0 | 11.3 | 0.00 | 0.00 | 0.00 | 67 | 1008.8 |
| 20260504235041 | 16 | 276 | 0.0 | 17.7 | 0.00 | 0.00 | 0.00 | 68 | 1008.8 |
| 20260504234617 | 16 | 286 | 3.2 | 17.7 | 0.00 | 0.00 | 0.00 | 66 | 1008.8 |
| 20260504234049 | 17 | 261 | 0.0 | 11.3 | 0.00 | 0.00 | 0.00 | 64 | 1008.8 |
| 20260504233648 | 17 | 230 | 0.0 | 11.3 | 0.00 | 0.00 | 0.00 | 63 | 1008.8 |
| 20260504233106 | 16 | 251 | 0.0 | 17.7 | 0.00 | 0.00 | 0.00 | 65 | 1008.8 |
| 20260504232548 | 16 | 258 | 0.0 | 17.7 | 0.00 | 0.00 | 0.00 | 65 | 1008.7 |
| 20260504232045 | 16 | 241 | 0.0 | 14.5 | 0.00 | 0.00 | 0.00 | 64 | 1008.7 |
| 20260504231544 | 16 | 221 | 3.2 | 19.3 | 0.00 | 0.00 | 0.00 | 63 | 1008.7 |
| 20260504231102 | 17 | 279 | 3.2 | 19.3 | 0.00 | 0.00 | 0.00 | 64 | 1008.7 |
| 20260504230555 | 17 | 195 | 3.2 | 17.7 | 0.00 | 0.00 | 0.00 | 64 | 1008.7 |
| 20260504230049 | 17 | 244 | 4.8 | 17.7 | 0.00 | 0.00 | 0.00 | 64 | 1008.7 |
| 20260504225542 | 17 | 233 | 3.2 | 27.4 | 0.00 | 0.00 | 0.00 | 61 | 1008.8 |
| 20260504225059 | 17 | 216 | 1.6 | 27.4 | 0.00 | 0.00 | 0.00 | 62 | 1008.8 |
| 20260504224552 | 17 | 272 | 8.0 | 22.5 | 0.00 | 0.00 | 0.00 | 62 | 1008.8 |
| 20260504224104 | 17 | 207 | 1.6 | 22.5 | 0.00 | 0.00 | 0.00 | 64 | 1009.2 |
| 20260504223601 | 17 | 232 | 4.8 | 17.7 | 0.00 | 0.00 | 0.00 | 64 | 1009.2 |
| 20260504223137 | 17 | 232 | 3.2 | 14.5 | 0.00 | 0.00 | 0.00 | 66 | 1009.2 |
| 20260504222558 | 17 | 194 | 1.6 | 19.3 | 0.00 | 0.00 | 0.00 | 66 | 1009.3 |
| 20260504222107 | 17 | 279 | 6.4 | 24.1 | 0.00 | 0.00 | 0.00 | 65 | 1009.3 |
| 20260504221540 | 17 | 275 | 8.0 | 25.7 | 0.00 | 0.00 | 0.00 | 61 | 1009.3 |
| 20260504221056 | 17 | 197 | 6.4 | 25.7 | 0.00 | 0.00 | 0.00 | 62 | 1009.7 |
| 20260504220551 | 17 | 215 | 1.6 | 16.1 | 0.00 | 0.00 | 0.00 | 65 | 1009.7 |
| 20260504220104 | 18 | 248 | 1.6 | 11.3 | 0.00 | 0.00 | 0.00 | 63 | 1009.7 |
| 20260504215542 | 18 | 231 | 1.6 | 11.3 | 0.00 | 0.00 | 0.00 | 63 | 1009.7 |
| 20260504215058 | 18 | 289 | 0.0 | 6.4 | 0.00 | 0.00 | 0.00 | 61 | 1009.7 |
| 20260504214613 | 18 | 207 | 0.0 | 8.0 | 0.00 | 0.00 | 0.00 | 65 | 1009.7 |
| 20260504214047 | 17 | 184 | 3.2 | 11.3 | 0.00 | 0.00 | 0.00 | 64 | 1010.0 |
| 20260504213542 | 17 | 224 | 1.6 | 11.3 | 0.00 | 0.00 | 0.00 | 65 | 1010.0 |
| 20260504213057 | 17 | 292 | 0.0 | 8.0 | 0.00 | 0.00 | 0.00 | 65 | 1010.0 |
| 20260504212618 | 17 | 188 | 0.0 | 6.4 | 0.00 | 0.00 | 0.00 | 64 | 1010.2 |
| 20260504212050 | 18 | 202 | 1.6 | 6.4 | 0.00 | 0.00 | 0.00 | 64 | 1010.2 |
| 20260504211547 | 17 | 191 | 0.0 | 6.4 | 0.00 | 0.00 | 0.00 | 65 | 1010.2 |
| 20260504211041 | 17 | 270 | 1.6 | 19.3 | 0.00 | 0.00 | 0.00 | 64 | 1010.2 |
| 20260504210557 | 17 | 228 | 1.6 | 19.3 | 0.00 | 0.00 | 0.00 | 65 | 1010.2 |
| 20260504210054 | 17 | 219 | 0.0 | 8.0 | 0.00 | 0.00 | 0.00 | 66 | 1010.2 |
| 20260504205609 | 17 | 242 | 0.0 | 8.0 | 0.00 | 0.00 | 0.00 | 64 | 1010.1 |
| 20260504205043 | 18 | 197 | 1.6 | 6.4 | 0.00 | 0.00 | 0.00 | 64 | 1010.1 |
| 20260504204542 | 18 | 222 | 0.0 | 14.5 | 0.00 | 0.00 | 0.00 | 62 | 1010.1 |
| 20260504204042 | 18 | 218 | 4.8 | 14.5 | 0.00 | 0.00 | 0.00 | 63 | 1010.1 |
| 20260504203556 | 18 | 188 | 1.6 | 11.3 | 0.00 | 0.00 | 0.00 | 63 | 1010.1 |
| 20260504203052 | 18 | 290 | 3.2 | 11.3 | 0.00 | 0.00 | 0.00 | 61 | 1010.1 |
| 20260504202608 | 18 | 221 | 0.0 | 6.4 | 0.00 | 0.00 | 0.00 | 62 | 1010.0 |
| 20260504202138 | 18 | 209 | 1.6 | 11.3 | 0.00 | 0.00 | 0.00 | 61 | 1010.0 |
| 20260504201554 | 18 | 313 | 1.6 | 11.3 | 0.00 | 0.00 | 0.00 | 60 | 1010.0 |
| 20260504201045 | 18 | 202 | 1.6 | 8.0 | 0.00 | 0.00 | 0.00 | 59 | 1010.2 |
| 20260504200544 | 18 | 190 | 3.2 | 8.0 | 0.00 | 0.00 | 0.00 | 56 | 1010.2 |
| 20260504200039 | 18 | 207 | 0.0 | 8.0 | 0.00 | 0.00 | 0.00 | 59 | 1010.2 |
| 20260504195615 | 18 | 286 | 3.2 | 11.3 | 0.00 | 0.00 | 0.00 | 57 | 1010.0 |
| 20260504195050 | 18 | 243 | 3.2 | 11.3 | 0.00 | 0.00 | 0.00 | 56 | 1010.0 |
| 20260504194545 | 19 | 273 | 0.0 | 8.0 | 0.00 | 0.00 | 0.00 | 59 | 1010.0 |
| 20260504194041 | 18 | 240 | 1.6 | 17.7 | 0.00 | 0.00 | 0.00 | 56 | 1010.3 |
| 20260504193617 | 18 | 264 | 4.8 | 17.7 | 0.00 | 0.00 | 0.00 | 58 | 1010.3 |
| 20260504193051 | 18 | 211 | 1.6 | 14.5 | 0.00 | 0.00 | 0.00 | 58 | 1010.3 |
| 20260504192545 | 18 | 276 | 4.8 | 16.1 | 0.00 | 0.00 | 0.00 | 57 | 1010.3 |
| 20260504192059 | 18 | 264 | 1.6 | 16.1 | 0.00 | 0.00 | 0.00 | 57 | 1010.3 |
| 20260504191617 | 18 | 278 | 1.6 | 16.1 | 0.00 | 0.00 | 0.00 | 58 | 1010.3 |
| 20260504191117 | 18 | 257 | 4.8 | 16.1 | 0.00 | 0.00 | 0.00 | 56 | 1010.2 |
| 20260504190550 | 18 | 290 | 3.2 | 9.7 | 0.00 | 0.00 | 0.00 | 58 | 1010.2 |
| 20260504190045 | 18 | 284 | 0.0 | 9.7 | 0.00 | 0.00 | 0.00 | 58 | 1010.2 |
| 20260504185557 | 17 | 219 | 1.6 | 14.5 | 0.00 | 0.00 | 0.00 | 59 | 1010.3 |
| 20260504185052 | 17 | 274 | 3.2 | 14.5 | 0.00 | 0.00 | 0.00 | 59 | 1010.3 |
| 20260504184548 | 17 | 207 | 1.6 | 17.7 | 0.00 | 0.00 | 0.00 | 59 | 1010.3 |
| 20260504184102 | 17 | 218 | 1.6 | 17.7 | 0.00 | 0.00 | 0.00 | 59 | 1010.3 |
| 20260504183630 | 17 | 222 | 1.6 | 17.7 | 0.00 | 0.00 | 0.00 | 61 | 1010.3 |
| 20260504183104 | 17 | 242 | 1.6 | 9.7 | 0.00 | 0.00 | 0.00 | 62 | 1010.3 |
| 20260504182553 | 17 | 255 | 3.2 | 9.7 | 0.00 | 0.00 | 0.00 | 61 | 1010.3 |
| 20260504182048 | 17 | 217 | 1.6 | 17.7 | 0.00 | 0.00 | 0.00 | 60 | 1010.3 |
| 20260504181543 | 17 | 269 | 1.6 | 17.7 | 0.00 | 0.00 | 0.00 | 61 | 1010.3 |
| 20260504181059 | 17 | 271 | 1.6 | 14.5 | 0.00 | 0.00 | 0.00 | 61 | 1010.3 |
| 20260504180614 | 17 | 188 | 3.2 | 22.5 | 0.00 | 0.00 | 0.00 | 59 | 1010.3 |
| 20260504180050 | 17 | 288 | 6.4 | 22.5 | 0.00 | 0.00 | 0.00 | 59 | 1010.3 |
| 20260504175547 | 17 | 218 | 3.2 | 24.1 | 0.00 | 0.00 | 0.00 | 61 | 1010.3 |
| 20260504175041 | 17 | 282 | 1.6 | 24.1 | 0.00 | 0.00 | 0.00 | 63 | 1010.3 |
| 20260504174557 | 17 | 242 | 3.2 | 20.9 | 0.00 | 0.00 | 0.00 | 62 | 1010.3 |
| 20260504174112 | 17 | 303 | 4.8 | 20.9 | 0.00 | 0.00 | 0.00 | 60 | 1010.3 |
| 20260504173605 | 17 | 267 | 1.6 | 11.3 | 0.00 | 0.00 | 0.00 | 62 | 1010.3 |
| 20260504173059 | 17 | 274 | 1.6 | 14.5 | 0.00 | 0.00 | 0.00 | 63 | 1010.3 |
| 20260504172553 | 16 | 328 | 1.6 | 14.5 | 0.00 | 0.00 | 0.00 | 61 | 1010.1 |
| 20260504172049 | 16 | 213 | 3.2 | 16.1 | 0.00 | 0.00 | 0.00 | 61 | 1010.1 |
| 20260504171543 | 16 | 288 | 1.6 | 16.1 | 0.00 | 0.00 | 0.00 | 62 | 1010.1 |
| 20260504171118 | 16 | 286 | 1.6 | 17.7 | 0.00 | 0.00 | 0.00 | 60 | 1009.8 |
| 20260504170621 | 16 | 267 | 1.6 | 17.7 | 0.00 | 0.00 | 0.00 | 59 | 1009.8 |
| 20260504151102 | 13 | 263 | 3.2 | 11.3 | 0.00 | 0.00 | 0.00 | 71 | 1009.3 |
| 20260504150535 | 13 | 269 | 3.2 | 11.3 | 0.00 | 0.00 | 0.00 | 72 | 1009.3 |
| 20260504141046 | 12 | 273 | 1.6 | 11.3 | 0.00 | 0.00 | 0.00 | 80 | 1009.0 |
| 20260504140556 | 12 | 271 | 1.6 | 8.0 | 0.00 | 0.00 | 0.00 | 81 | 1009.0 |
| 20260504130606 | 12 | 280 | 0.0 | 8.0 | 0.00 | 0.00 | 0.00 | 79 | 1008.9 |
| 20260504110547 | 13 | 265 | 0.0 | 9.7 | 0.00 | 0.00 | 0.00 | 78 | 1008.8 |
| 20260504081609 | 13 | 275 | 0.0 | 0.0 | 0.00 | 0.00 | 0.00 | 79 | 1009.3 |
| 20260504081057 | 13 | 275 | 0.0 | 0.0 | 0.00 | 0.00 | 0.00 | 78 | 1009.6 |
| 20260504080550 | 13 | 275 | 0.0 | 0.0 | 0.00 | 0.00 | 0.00 | 78 | 1009.6 |
| 20260504050540 | 13 | 234 | 0.0 | 0.0 | 0.00 | 0.00 | 0.00 | 76 | 1009.2 |
| 20260504045549 | 13 | 267 | 0.0 | 8.0 | 0.00 | 0.00 | 0.00 | 76 | 1009.2 |
| 20260504045043 | 13 | 225 | 0.0 | 0.0 | 0.00 | 0.00 | 0.00 | 78 | 1009.2 |
| 20260504044613 | 13 | 225 | 0.0 | 6.4 | 0.00 | 0.00 | 0.00 | 79 | 1009.2 |
| 20260504044057 | 13 | 284 | 1.6 | 6.4 | 0.00 | 0.00 | 0.00 | 79 | 1009.2 |
| 20260504043554 | 14 | 280 | 0.0 | 9.7 | 0.00 | 0.00 | 0.00 | 79 | 1009.2 |
| 20260504043115 | 14 | 284 | 1.6 | 9.7 | 0.00 | 0.00 | 0.00 | 81 | 1009.2 |
| 20260504042612 | 14 | 269 | 0.0 | 8.0 | 0.00 | 0.00 | 0.00 | 79 | 1009.0 |
| 20260504042050 | 14 | 246 | 0.0 | 6.4 | 0.00 | 0.00 | 0.00 | 78 | 1009.0 |
| 20260504041545 | 14 | 271 | 0.0 | 8.0 | 0.00 | 0.00 | 0.00 | 78 | 1009.0 |
| 20260504041041 | 14 | 269 | 0.0 | 8.0 | 0.00 | 0.00 | 0.00 | 77 | 1008.8 |
| 20260504040556 | 14 | 269 | 0.0 | 1.6 | 0.00 | 0.00 | 0.00 | 76 | 1008.8 |
| 20260504040050 | 14 | 269 | 0.0 | 4.8 | 0.00 | 0.00 | 0.00 | 76 | 1008.8 |
| 20260504035550 | 14 | 269 | 0.0 | 8.0 | 0.00 | 0.00 | 0.00 | 76 | 1008.7 |
| 20260504035045 | 14 | 248 | 0.0 | 6.4 | 0.00 | 0.00 | 0.00 | 75 | 1008.7 |
| 20260504034602 | 14 | 219 | 0.0 | 8.0 | 0.00 | 0.00 | 0.00 | 75 | 1008.7 |
| 20260504034100 | 14 | 254 | 1.6 | 8.0 | 0.00 | 0.00 | 0.00 | 75 | 1008.4 |
| 20260504033555 | 14 | 284 | 0.0 | 4.8 | 0.00 | 0.00 | 0.00 | 75 | 1008.4 |
| 20260504033111 | 14 | 261 | 0.0 | 3.2 | 0.00 | 0.00 | 0.00 | 76 | 1008.4 |
| 20260504032620 | 14 | 261 | 0.0 | 9.7 | 0.00 | 0.00 | 0.00 | 75 | 1008.2 |